DW6650 Weather Reports


Display with metric or nautical units.
time (UTC)temp
F
wind
direction
speed
MPH
gust
MPH
rain 1hr
in
rain 24hr
in
rain mn
in
humidity
%
barometer
mb
20260504004517 63 257 0.0 0.0 0.00 0.00 0.00 53 1017.6
20260504004017 63 257 0.0 0.0 0.00 0.00 0.00 52 1017.5
20260504003517 64 257 0.0 0.0 0.00 0.00 0.00 49 1017.5
20260504003017 65 257 0.0 0.0 0.00 0.00 0.00 48 1017.4
20260504002517 65 257 0.0 0.0 0.00 0.00 0.00 48 1017.4
20260504002017 66 257 0.0 0.0 0.00 0.00 0.00 47 1017.4
20260504001538 66 257 0.0 0.0 0.00 0.00 0.00 47 1017.4
20260504001017 67 257 0.0 0.0 0.00 0.00 0.00 46 1017.4
20260504000517 68 257 0.0 0.0 0.00 0.00 0.00 45 1017.4
20260504000017 69 257 0.0 0.0 0.00 0.00 0.00 44 1017.4
20260503235522 70 257 0.0 0.0 0.00 0.00 0.00 43 1017.3
20260503235017 71 257 0.0 0.0 0.00 0.00 0.00 41 1017.4
20260503234517 72 257 0.0 0.0 0.00 0.00 0.00 40 1017.4
20260503234017 73 257 0.0 0.0 0.00 0.00 0.00 40 1017.4
20260503233517 74 257 0.0 0.0 0.00 0.00 0.00 40 1017.5
20260503233017 75 248 0.0 1.0 0.00 0.00 0.00 41 1017.4
20260503232517 75 248 2.0 5.0 0.00 0.00 0.00 32 1017.5
20260503232017 75 248 1.0 3.0 0.00 0.00 0.00 32 1017.4
20260503231517 75 248 1.0 3.0 0.00 0.00 0.00 32 1017.5
20260503231017 75 248 1.0 4.0 0.00 0.00 0.00 31 1017.5
20260503230517 75 248 1.0 5.0 0.00 0.00 0.00 31 1017.5
20260503230038 75 248 1.0 3.0 0.00 0.00 0.00 33 1017.5
20260503225517 75 248 1.0 5.0 0.00 0.00 0.00 32 1017.5
20260503225017 75 248 2.0 7.0 0.00 0.00 0.00 31 1017.5
20260503224537 75 248 2.0 6.0 0.00 0.00 0.00 32 1017.5
20260503224017 75 225 2.0 6.0 0.00 0.00 0.00 32 1017.4
20260503223517 75 225 2.0 9.0 0.00 0.00 0.00 30 1017.4
20260503223017 75 225 0.0 4.0 0.00 0.00 0.00 32 1017.4
20260503222537 75 248 1.0 5.0 0.00 0.00 0.00 32 1017.5
20260503222017 75 68 2.0 7.0 0.00 0.00 0.00 31 1017.5
20260503221538 76 248 2.0 7.0 0.00 0.00 0.00 31 1017.6
20260503221037 76 225 1.0 3.0 0.00 0.00 0.00 32 1017.6
20260503220517 75 225 2.0 6.0 0.00 0.00 0.00 31 1017.6
20260503220017 75 248 1.0 5.0 0.00 0.00 0.00 33 1017.6
20260503215519 75 248 2.0 6.0 0.00 0.00 0.00 32 1017.7
20260503215039 74 248 2.0 9.0 0.00 0.00 0.00 33 1017.8
20260503214517 74 248 3.0 7.0 0.00 0.00 0.00 31 1017.8
20260503214037 74 248 2.0 8.0 0.00 0.00 0.00 32 1017.8
20260503213517 75 68 1.0 6.0 0.00 0.00 0.00 34 1017.8
20260503213022 75 248 2.0 6.0 0.00 0.00 0.00 31 1017.8
20260503212517 75 248 1.0 5.0 0.00 0.00 0.00 33 1017.9
20260503212017 75 248 1.0 4.0 0.00 0.00 0.00 33 1017.9
20260503211537 75 248 2.0 6.0 0.00 0.00 0.00 33 1017.9
20260503211037 75 203 1.0 6.0 0.00 0.00 0.00 34 1018.0
20260503210517 75 203 2.0 10.0 0.00 0.00 0.00 34 1018.0
20260503210016 74 248 1.0 4.0 0.00 0.00 0.00 34 1017.9
20260503205517 73 90 0.0 3.0 0.00 0.00 0.00 35 1018.0
20260503205017 73 248 2.0 9.0 0.00 0.00 0.00 35 1018.0
20260503204517 73 135 1.0 5.0 0.00 0.00 0.00 36 1018.0
20260503204016 73 203 2.0 9.0 0.00 0.00 0.00 34 1018.0
20260503203516 73 203 1.0 4.0 0.00 0.00 0.00 35 1018.1
20260503203017 73 225 3.0 7.0 0.00 0.00 0.00 32 1018.1
20260503202517 73 225 1.0 6.0 0.00 0.00 0.00 34 1018.1
20260503202037 73 248 1.0 4.0 0.00 0.00 0.00 36 1018.1
20260503201517 73 248 1.0 5.0 0.00 0.00 0.00 34 1018.2
20260503201037 72 203 0.0 4.0 0.00 0.00 0.00 35 1018.3
20260503200516 72 203 2.0 7.0 0.00 0.00 0.00 32 1018.4
20260503200016 72 248 2.0 9.0 0.00 0.00 0.00 36 1018.4
20260503195537 72 248 3.0 9.0 0.00 0.00 0.00 32 1018.5
20260503195037 72 248 1.0 5.0 0.00 0.00 0.00 34 1018.6
20260503194517 72 248 3.0 11.0 0.00 0.00 0.00 31 1018.7
20260503194018 72 225 3.0 12.0 0.00 0.00 0.00 35 1018.8
20260503193536 71 248 2.0 6.0 0.00 0.00 0.00 34 1018.8
20260503193037 71 270 2.0 5.0 0.00 0.00 0.00 33 1018.9
20260503192556 71 248 2.0 7.0 0.00 0.00 0.00 36 1019.0
20260503192016 71 270 2.0 6.0 0.00 0.00 0.00 34 1019.1
20260503191516 71 225 1.0 4.0 0.00 0.00 0.00 32 1019.2
20260503191016 71 203 3.0 9.0 0.00 0.00 0.00 33 1019.3
20260503190536 71 203 2.0 9.0 0.00 0.00 0.00 36 1019.3
20260503190016 71 248 0.0 3.0 0.00 0.00 0.00 35 1019.3
20260503185516 71 293 1.0 6.0 0.00 0.00 0.00 37 1019.5
20260503185018 71 225 2.0 6.0 0.00 0.00 0.00 36 1019.6
20260503184517 70 225 1.0 8.0 0.00 0.00 0.00 38 1019.7
20260503184016 70 203 2.0 6.0 0.00 0.00 0.00 36 1019.8
20260503183516 70 248 2.0 7.0 0.00 0.00 0.00 36 1019.8
20260503183016 70 225 1.0 4.0 0.00 0.00 0.00 35 1019.9
20260503182516 70 225 3.0 10.0 0.00 0.00 0.00 37 1019.9
20260503182036 70 248 2.0 6.0 0.00 0.00 0.00 37 1020.0
20260503181516 70 248 3.0 7.0 0.00 0.00 0.00 34 1020.1
20260503181021 70 270 1.0 3.0 0.00 0.00 0.00 37 1020.2
20260503180537 70 248 2.0 7.0 0.00 0.00 0.00 37 1020.3
20260503180016 70 203 1.0 5.0 0.00 0.00 0.00 36 1020.3
20260503175536 69 225 2.0 8.0 0.00 0.00 0.00 37 1020.4
20260503175036 69 225 3.0 8.0 0.00 0.00 0.00 38 1020.3
20260503174516 69 248 3.0 10.0 0.00 0.00 0.00 37 1020.4
20260503174016 69 225 2.0 5.0 0.00 0.00 0.00 41 1020.6
20260503173516 69 248 2.0 7.0 0.00 0.01 0.00 37 1020.6
20260503173016 69 270 1.0 5.0 0.00 0.01 0.00 38 1020.7
20260503172516 69 225 1.0 3.0 0.00 0.01 0.00 40 1020.7
20260503172016 68 225 2.0 11.0 0.00 0.01 0.00 39 1020.7
20260503171516 68 248 2.0 11.0 0.00 0.01 0.00 38 1020.7
20260503171016 68 225 2.0 6.0 0.00 0.01 0.00 38 1020.8
20260503170516 68 248 2.0 5.0 0.00 0.01 0.00 40 1020.9
20260503150516 66 248 1.0 5.0 0.00 0.01 0.00 48 1021.5
20260503131017 55 248 1.0 4.0 0.00 0.01 0.00 76 1021.4
20260503130519 54 248 1.0 5.0 0.00 0.02 0.00 78 1021.2
20260503110537 44 203 0.0 1.0 0.00 0.02 0.00 93 1019.7
20260503081516 47 246 0.0 0.0 0.00 0.05 0.00 84 1018.6
20260503081036 47 246 0.0 0.0 0.00 0.06 0.00 84 1018.7
20260503080536 47 246 0.0 0.0 0.00 0.06 0.00 83 1018.6
20260503072516 48 225 0.0 2.0 0.00 0.07 0.00 84 1018.2
20260503072016 48 203 0.0 1.0 0.00 0.08 0.00 83 1018.1
20260503071516 48 203 1.0 2.0 0.00 0.08 0.00 82 1018.0
20260503071016 48 203 0.0 1.0 0.00 0.08 0.00 82 1018.0
20260503070516 48 200 0.0 0.0 0.00 0.08 0.00 81 1018.0
20260503055016 50 182 0.0 0.0 0.00 0.18 0.00 75 1017.6
20260503054516 50 182 0.0 0.0 0.00 0.18 0.00 74 1017.7
20260503054016 50 182 0.0 0.0 0.00 0.18 0.00 75 1017.6
20260503053516 50 182 0.0 0.0 0.00 0.18 0.00 77 1017.6
20260503053016 50 182 0.0 0.0 0.00 0.19 0.00 77 1017.5
20260503052516 50 182 0.0 0.0 0.00 0.19 0.00 77 1017.5
20260503052016 51 182 0.0 0.0 0.00 0.20 0.00 77 1017.5
20260503051516 51 182 0.0 0.0 0.00 0.20 0.00 76 1017.5
20260503051037 51 180 0.0 1.0 0.00 0.20 0.00 73 1017.5
20260503050516 51 182 0.0 0.0 0.00 0.20 0.00 72 1017.4
20260503050016 51 182 0.0 0.0 0.00 0.21 0.00 70 1017.4
20260503045516 51 182 0.0 0.0 0.00 0.21 0.00 70 1017.3
20260503045016 52 182 0.0 0.0 0.00 0.22 0.00 71 1017.3
20260503044516 52 182 0.0 0.0 0.00 0.22 0.00 71 1017.3
20260503044016 52 182 0.0 0.0 0.00 0.22 0.00 71 1017.3
20260503043515 52 182 0.0 0.0 0.00 0.23 0.00 70 1017.3
20260503043016 53 182 0.0 0.0 0.00 0.23 0.00 71 1017.2
20260503042516 53 182 0.0 0.0 0.00 0.24 0.00 71 1017.1
20260503042016 53 180 0.0 1.0 0.00 0.24 0.00 68 1017.1
20260503041536 53 181 0.0 0.0 0.00 0.24 0.00 67 1017.2
20260503041017 53 181 0.0 0.0 0.00 0.24 0.00 66 1017.1
20260503040516 54 181 0.0 0.0 0.00 0.25 0.00 65 1017.0
20260503040016 54 181 0.0 0.0 0.00 0.26 0.26 65 1017.0
20260503035516 54 181 0.0 0.0 0.00 0.26 0.26 60 1016.9
20260503035016 54 181 0.0 0.0 0.00 0.26 0.26 61 1016.9
20260503034516 54 181 0.0 0.0 0.00 0.26 0.26 59 1016.9
20260503034036 54 181 0.0 0.0 0.00 0.26 0.26 60 1016.8
20260503033516 54 181 0.0 0.0 0.00 0.26 0.26 61 1016.7
20260503033016 54 181 0.0 0.0 0.00 0.26 0.26 59 1016.7
20260503032516 54 180 0.0 1.0 0.00 0.26 0.26 62 1016.7
20260503032016 54 181 0.0 0.0 0.00 0.26 0.26 63 1016.7
20260503031516 54 181 0.0 0.0 0.00 0.26 0.26 68 1016.7
20260503031036 55 181 0.0 0.0 0.00 0.26 0.26 66 1016.7
20260503030516 55 181 0.0 0.0 0.00 0.27 0.26 66 1016.6
20260503030036 55 181 0.0 0.0 0.00 0.27 0.26 64 1016.5
20260503025516 55 181 0.0 0.0 0.00 0.27 0.26 60 1016.5
20260503025016 56 181 0.0 0.0 0.00 0.27 0.26 59 1016.4
20260503024516 56 181 0.0 0.0 0.00 0.27 0.26 60 1016.4
20260503024016 56 181 0.0 0.0 0.00 0.27 0.26 61 1016.3
20260503023516 56 181 0.0 0.0 0.00 0.27 0.26 61 1016.3
20260503023016 57 181 0.0 0.0 0.00 0.27 0.26 61 1016.3
20260503022516 57 181 0.0 0.0 0.00 0.27 0.26 63 1016.2
20260503022016 57 181 0.0 0.0 0.00 0.27 0.26 60 1016.1
20260503021516 58 181 0.0 0.0 0.00 0.27 0.26 56 1016.0
20260503021016 58 181 0.0 0.0 0.00 0.27 0.26 57 1016.0
20260503020516 58 181 0.0 0.0 0.00 0.27 0.26 53 1015.9
20260503020016 58 181 0.0 0.0 0.00 0.27 0.26 52 1015.9
20260503015516 59 181 0.0 0.0 0.00 0.27 0.26 53 1015.8
20260503015016 59 181 0.0 0.0 0.00 0.27 0.26 52 1015.7
20260503014537 59 180 0.0 2.0 0.00 0.27 0.26 53 1015.6
20260503014016 60 225 0.0 2.0 0.00 0.27 0.26 53 1015.5
20260503013516 60 225 0.0 1.0 0.00 0.27 0.26 52 1015.4
20260503013016 60 236 0.0 0.0 0.00 0.27 0.26 54 1015.3
20260503012516 61 248 0.0 3.0 0.00 0.27 0.26 52 1015.2
20260503012016 61 248 1.0 4.0 0.00 0.27 0.26 50 1015.1
20260503011516 61 248 1.0 3.0 0.00 0.27 0.26 51 1015.0
20260503011016 62 248 1.0 4.0 0.00 0.27 0.26 49 1014.9
20260503010516 62 248 1.0 3.0 0.00 0.27 0.26 50 1014.8
20260503010016 62 248 1.0 4.0 0.00 0.27 0.26 46 1014.6
20260503005516 63 248 1.0 5.0 0.00 0.27 0.26 45 1014.6
20260503005015 63 225 0.0 4.0 0.00 0.27 0.26 49 1014.5